Location: 81360 Arifat, France
(43.7204°N, 2.3408°E)
Time: 17:10:38
(UTC+02:00)

ISS - Visible Passes

Search period start: 13 July 2025 00:00
Search period end: 23 July 2025 00:00
Orbit: 413 x 417 km, 51.6° (Epoch: 13 July)

Date Brightness Start Highest point End Pass type
(mag) Time Alt. Az. Time Alt. Az. Time Alt. Az.
13 Jul -1.1 00:23:17 10° NW 00:25:53 20° N 00:28:29 10° NE visible
13 Jul -2.1 02:00:10 10° NW 02:03:16 34° NNE 02:03:20 34° NNE visible
13 Jul -1.1 23:34:10 10° WNW 23:36:48 21° N 23:39:27 10° NE visible
14 Jul -1.7 01:11:21 10° NW 01:14:16 27° NNE 01:15:19 22° NE visible
14 Jul -0.9 02:47:55 10° WNW 02:48:07 11° WNW 02:48:07 11° WNW visible
14 Jul -1.3 22:44:58 10° WNW 22:47:43 23° N 22:50:29 10° NE visible
15 Jul -1.4 00:22:28 10° NW 00:25:13 23° N 00:27:33 12° ENE visible
15 Jul -1.6 01:59:02 10° NW 02:00:22 22° NW 02:00:22 22° NW visible
15 Jul -1.2 23:33:28 10° NW 23:36:07 21° N 23:38:44 10° ENE visible
16 Jul -2.3 01:10:11 10° NW 01:12:45 38° N 01:12:45 38° N visible
16 Jul -1.2 22:44:23 10° NW 22:46:58 20° N 22:49:34 10° NE visible
17 Jul -2.2 00:21:19 10° NW 00:24:23 32° NNE 00:25:12 28° NE visible
17 Jul -0.8 01:57:57 10° WNW 01:58:01 10° WNW 01:58:01 10° WNW visible
17 Jul -1.8 23:32:25 10° NW 23:35:17 26° NNE 23:37:41 13° ENE visible
18 Jul -1.8 01:08:57 10° WNW 01:10:31 25° WNW 01:10:31 25° WNW visible
18 Jul -1.5 22:43:26 10° NW 22:46:08 22° N 22:48:51 10° ENE visible
19 Jul -3.2 00:20:01 10° NW 00:23:02 57° N 00:23:02 57° N visible
19 Jul -2.7 23:31:05 10° NW 23:34:17 41° NNE 23:35:35 27° ENE visible
20 Jul -1.0 01:07:54 10° WNW 01:08:26 13° WNW 01:08:26 13° WNW visible
20 Jul -2.2 22:42:10 10° NW 22:45:11 30° NNE 22:48:10 10° E visible
21 Jul -2.6 00:18:45 10° WNW 00:21:00 37° W 00:21:00 37° W visible
21 Jul -1.8 21:53:11 10° NW 21:56:00 25° NNE 21:58:50 10° ENE visible
21 Jul -3.9 23:29:42 10° WNW 23:33:04 86° NNE 23:33:37 59° ESE visible
22 Jul -3.3 22:40:43 10° NW 22:44:00 55° NNE 22:46:15 18° E visible
